Location: Puketoi
(40.5833°S, 176.0167°E)
Time: 14:35:46
(UTC+00:00)

YAOGAN 6 - Pass Details

Date: 08 February 2023
Orbit: 447 x 482 km, 97.1° (Epoch: 22 March)

Event Time Altitude Azimuth Distance (km) Brightness Sun altitude
Exits shadow 16:35:13 14° 276° (W) 1,392 4.3 -10.7°
Maximum altitude 16:35:26 14° 272° (W) 1,390 4.3 -10.6°
Drops below altitude 10° 16:37:19 10° 239° (WSW) 1,625 4.9 -10.3°
Sets 16:40:13 0° 212° (SSW) 2,522 6.2 -9.8°
